IZ4UFQ-10 Weather Reports


Display with metric or nautical units.
time (UTC)temp
F
wind
direction
speed
MPH
gust
MPH
rain 1hr
in
rain 24hr
in
rain mn
in
humidity
%
barometer
mb
20260901201128 79 111 0.0 0.0 0.00 0.00 0.00 68 1016.3
20260901200628 79 111 0.0 0.0 0.00 0.00 0.00 68 1016.4
20260901200127 79 111 0.0 0.0 0.00 0.00 0.00 68 1016.3
20260901195627 79 111 0.0 0.0 0.00 0.00 0.00 68 1016.3
20260901195127 79 111 0.0 0.0 0.00 0.00 0.00 67 1016.3
20260901194627 80 110 0.0 0.0 0.00 0.00 0.00 67 1016.4
20260901194127 80 111 0.0 0.0 0.00 0.00 0.00 66 1016.4
20260901193626 80 111 0.0 0.0 0.00 0.00 0.00 65 1016.3
20260901193126 81 110 0.0 0.0 0.00 0.00 0.00 65 1016.3
20260901192625 81 109 0.0 0.0 0.00 0.00 0.00 64 1016.3
20260901192125 81 108 0.0 0.0 0.00 0.00 0.00 64 1016.3
20260901191625 81 109 0.0 0.0 0.00 0.00 0.00 64 1016.2
20260901191125 81 110 0.0 0.0 0.00 0.00 0.00 63 1016.1
20260901190624 81 89 0.0 0.0 0.00 0.00 0.00 63 1016.0
20260901190124 81 96 0.0 0.0 0.00 0.00 0.00 62 1016.0
20260901185624 82 65 0.0 0.0 0.00 0.00 0.00 62 1016.0
20260901185123 82 120 0.0 0.0 0.00 0.00 0.00 61 1015.9
20260901184623 82 79 0.0 0.0 0.00 0.00 0.00 61 1015.9
20260901184123 82 84 0.0 0.0 0.00 0.00 0.00 60 1015.8
20260901183623 82 82 0.0 0.0 0.00 0.00 0.00 60 1015.6
20260901183122 82 80 0.0 0.0 0.00 0.00 0.00 59 1015.6
20260901182622 83 123 0.0 0.0 0.00 0.00 0.00 59 1015.6
20260901182122 83 106 0.0 0.0 0.00 0.00 0.00 58 1015.5
20260901181621 83 114 0.0 0.0 0.00 0.00 0.00 57 1015.4
20260901181121 83 73 0.0 0.0 0.00 0.00 0.00 56 1015.3
20260901180621 83 112 0.0 0.0 0.00 0.00 0.00 56 1015.3
20260901180120 83 113 0.0 0.0 0.00 0.00 0.00 55 1015.3
20260901175620 84 90 0.0 0.0 0.00 0.00 0.00 55 1015.3
20260901175120 84 108 0.0 0.0 0.00 0.00 0.00 55 1015.5
20260901174620 84 93 0.0 0.0 0.00 0.00 0.00 55 1015.4
20260901174119 84 27 0.0 0.0 0.00 0.00 0.00 55 1015.3
20260901173619 84 79 0.0 0.0 0.00 0.00 0.00 55 1015.2
20260901173119 84 59 0.0 0.0 0.00 0.00 0.00 55 1015.3
20260901172618 84 70 0.0 0.0 0.00 0.00 0.00 55 1015.2
20260901172118 84 69 0.0 0.0 0.00 0.00 0.00 55 1015.2
20260901171618 84 61 0.0 0.0 0.00 0.00 0.00 55 1015.1
20260901171118 85 103 0.0 0.0 0.00 0.00 0.00 55 1015.2
20260901170617 85 145 0.0 0.0 0.00 0.00 0.00 55 1015.2
20260901170117 85 68 0.0 0.0 0.00 0.00 0.00 55 1015.1
20260901165617 85 60 0.0 0.0 0.00 0.00 0.00 55 1015.2
20260901165116 85 84 0.0 0.0 0.00 0.00 0.00 55 1015.2
20260901164616 85 50 0.0 0.0 0.00 0.00 0.00 55 1015.2
20260901164116 86 77 0.0 0.0 0.00 0.00 0.00 55 1015.2
20260901163616 86 89 0.0 0.0 0.00 0.00 0.00 54 1015.1
20260901163115 86 109 0.0 0.0 0.00 0.00 0.00 54 1015.2
20260901162615 86 131 0.0 0.0 0.00 0.00 0.00 54 1015.2
20260901162115 86 100 0.0 0.0 0.00 0.00 0.00 54 1015.2
20260901161614 86 77 0.0 0.0 0.00 0.00 0.00 55 1015.1
20260901161114 86 75 0.0 0.0 0.00 0.00 0.00 55 1015.2
20260901160614 86 50 0.0 0.0 0.00 0.00 0.00 55 1015.3
20260901160114 86 72 0.0 0.0 0.00 0.00 0.00 55 1015.3
20260901155613 86 113 0.0 0.0 0.00 0.00 0.00 55 1015.2
20260901155113 87 81 0.0 0.0 0.00 0.00 0.00 55 1015.2
20260901154613 86 100 0.0 0.0 0.00 0.00 0.00 55 1015.2
20260901154112 86 113 0.0 0.0 0.00 0.00 0.00 55 1015.3
20260901153612 87 110 0.0 0.0 0.00 0.00 0.00 55 1015.3
20260901153112 87 106 0.0 0.0 0.00 0.00 0.00 55 1015.3
20260901152612 87 87 0.0 0.0 0.00 0.00 0.00 55 1015.3
20260901152111 87 66 0.0 0.0 0.00 0.00 0.00 55 1015.4
20260901151611 87 84 0.0 0.0 0.00 0.00 0.00 55 1015.4
20260901151111 87 93 0.0 0.0 0.00 0.00 0.00 55 1015.4
20260901150610 87 345 0.0 0.0 0.00 0.00 0.00 55 1015.3
20260901150110 88 77 0.0 0.0 0.00 0.00 0.00 55 1015.2
20260901145610 88 60 0.0 0.0 0.00 0.00 0.00 54 1015.3
20260901145110 89 105 0.0 0.0 0.00 0.00 0.00 54 1015.4
20260901144609 89 81 0.0 0.0 0.00 0.00 0.00 53 1015.2
20260901144109 90 52 0.0 0.0 0.00 0.00 0.00 52 1015.3
20260901143609 90 73 0.0 0.0 0.00 0.00 0.00 51 1015.2
20260901143108 90 61 0.0 0.0 0.00 0.00 0.00 49 1015.2
20260901142608 90 17 0.0 0.0 0.00 0.00 0.00 48 1015.1
20260901142108 91 71 0.0 0.0 0.00 0.00 0.00 46 1015.2
20260901141608 91 87 0.0 0.0 0.00 0.00 0.00 46 1015.2
20260901141107 91 9 0.0 0.0 0.00 0.00 0.00 44 1015.2
20260901140607 91 21 0.0 0.0 0.00 0.00 0.00 44 1015.3
20260901140107 90 327 0.0 0.0 0.00 0.00 0.00 44 1015.3
20260901135606 90 56 0.0 0.0 0.00 0.00 0.00 44 1015.4
20260901135106 90 74 0.0 0.0 0.00 0.00 0.00 44 1015.5
20260901134606 90 90 0.0 0.0 0.00 0.00 0.00 44 1015.5
20260901134106 90 119 0.0 0.0 0.00 0.00 0.00 44 1015.4
20260901133605 90 104 0.0 0.0 0.00 0.00 0.00 45 1015.3
20260901133105 90 29 0.0 0.0 0.00 0.00 0.00 44 1015.3
20260901132605 90 93 0.0 0.0 0.00 0.00 0.00 45 1015.4
20260901132104 89 93 0.0 0.0 0.00 0.00 0.00 46 1015.5
20260901131604 89 91 0.0 0.0 0.00 0.00 0.00 46 1015.6
20260901131104 90 100 0.0 0.0 0.00 0.00 0.00 46 1015.5
20260901130603 89 133 0.0 0.0 0.00 0.00 0.00 47 1015.5
20260901125603 89 119 0.0 0.0 0.00 0.00 0.00 47 1015.6
20260901125103 89 62 0.0 0.0 0.00 0.00 0.00 47 1015.7
20260901124602 89 320 0.0 0.0 0.00 0.00 0.00 47 1015.7
20260901124102 89 338 0.0 0.0 0.00 0.00 0.00 47 1015.7
20260901123602 88 332 0.0 0.0 0.00 0.00 0.00 48 1015.8
20260901123101 89 12 0.0 0.0 0.00 0.00 0.00 47 1015.8
20260901122601 89 31 0.0 0.0 0.00 0.00 0.00 47 1015.8
20260901122101 89 334 0.0 0.0 0.00 0.00 0.00 47 1015.9
20260901121601 89 345 0.0 0.0 0.00 0.00 0.00 47 1015.9
20260901121100 88 350 0.0 0.0 0.00 0.00 0.00 47 1015.9
20260901120600 89 359 0.0 0.0 0.00 0.00 0.00 47 1016.0
20260901120100 89 12 0.0 0.0 0.00 0.00 0.00 47 1016.0
20260901115559 88 344 0.0 0.0 0.00 0.00 0.00 47 1016.0
20260901115059 88 91 0.0 0.0 0.00 0.00 0.00 48 1016.1
20260901114559 88 67 0.0 0.0 0.00 0.00 0.00 48 1016.1
20260901114059 88 31 0.0 0.0 0.00 0.00 0.00 48 1016.1
20260901113558 88 285 0.0 0.0 0.00 0.00 0.00 48 1016.1
20260901113058 88 295 0.0 0.0 0.00 0.00 0.00 48 1016.2
20260901112558 88 316 0.0 0.0 0.00 0.00 0.00 48 1016.2
20260901112057 88 342 0.0 0.0 0.00 0.00 0.00 48 1016.2
20260901111557 87 246 0.0 0.0 0.00 0.00 0.00 50 1016.2
20260901111057 87 354 0.0 0.0 0.00 0.00 0.00 50 1016.2
20260901110557 87 348 0.0 0.0 0.00 0.00 0.00 50 1016.2
20260901110056 87 14 0.0 0.0 0.00 0.00 0.00 50 1016.2
20260901105556 87 22 0.0 0.0 0.00 0.00 0.00 50 1016.3
20260901105056 86 23 0.0 0.0 0.00 0.00 0.00 51 1016.3
20260901104555 86 103 0.0 0.0 0.00 0.00 0.00 52 1016.3
20260901104055 86 20 0.0 0.0 0.00 0.00 0.00 51 1016.3
20260901103555 86 26 0.0 0.0 0.00 0.00 0.00 51 1016.3
20260901103055 86 175 0.0 0.0 0.00 0.00 0.00 51 1016.3
20260901102554 86 214 0.0 0.0 0.00 0.00 0.00 50 1016.4
20260901102054 86 245 0.0 0.0 0.00 0.00 0.00 51 1016.4
20260901101554 86 335 0.0 0.0 0.00 0.00 0.00 50 1016.4
20260901101053 86 335 0.0 0.0 0.00 0.00 0.00 51 1016.4
20260901100553 85 293 0.0 0.0 0.00 0.00 0.00 53 1016.5
20260901100053 85 60 0.0 0.0 0.00 0.00 0.00 53 1016.6
20260901095553 85 338 0.0 0.0 0.00 0.00 0.00 53 1016.6
20260901095052 85 293 0.0 0.0 0.00 0.00 0.00 53 1016.7
20260901094552 84 329 0.0 0.0 0.00 0.00 0.00 54 1016.7
20260901094052 84 216 0.0 0.0 0.00 0.00 0.00 54 1016.8
20260901093551 84 316 0.0 0.0 0.00 0.00 0.00 54 1016.8
20260901093051 84 241 0.0 0.0 0.00 0.00 0.00 54 1016.9
20260901092551 84 274 0.0 0.0 0.00 0.00 0.00 54 1016.9
20260901092051 84 310 0.0 0.0 0.00 0.00 0.00 55 1016.8
20260901091550 83 334 0.0 0.0 0.00 0.00 0.00 55 1016.9
20260901091050 84 22 0.0 0.0 0.00 0.00 0.00 54 1016.8
20260901090550 83 341 0.0 0.0 0.00 0.00 0.00 54 1016.8
20260901090049 83 283 0.0 0.0 0.00 0.00 0.00 54 1016.9
20260901085549 83 277 0.0 0.0 0.00 0.00 0.00 54 1016.8
20260901085049 83 239 0.0 0.0 0.00 0.00 0.00 54 1016.8
20260901084549 83 236 0.0 0.0 0.00 0.00 0.00 53 1016.9
20260901084048 83 320 0.0 0.0 0.00 0.00 0.00 53 1016.8
20260901083548 82 315 0.0 0.0 0.00 0.00 0.00 53 1016.8
20260901083048 82 321 0.0 0.0 0.00 0.00 0.00 53 1016.7
20260901082547 82 322 0.0 0.0 0.00 0.00 0.00 53 1016.7
20260901082047 82 324 0.0 0.0 0.00 0.00 0.00 54 1016.7
20260901081547 81 289 0.0 0.0 0.00 0.00 0.00 54 1016.6
20260901081046 81 296 0.0 0.0 0.00 0.00 0.00 55 1016.6
20260901080546 81 304 0.0 0.0 0.00 0.00 0.00 56 1016.6
20260901080046 80 303 0.0 0.0 0.00 0.00 0.00 57 1016.6
20260901075546 81 316 0.0 0.0 0.00 0.00 0.00 57 1016.5
20260901075045 80 243 0.0 0.0 0.00 0.00 0.00 58 1016.5
20260901074545 80 245 0.0 0.0 0.00 0.00 0.00 58 1016.6
20260901074045 80 240 0.0 0.0 0.00 0.00 0.00 58 1016.5
20260901073544 80 293 0.0 0.0 0.00 0.00 0.00 59 1016.5
20260901073044 79 308 0.0 0.0 0.00 0.00 0.00 59 1016.5
20260901072544 79 292 0.0 0.0 0.00 0.00 0.00 59 1016.5
20260901072044 79 245 0.0 0.0 0.00 0.00 0.00 58 1016.4
20260901071543 79 268 0.0 0.0 0.00 0.00 0.00 59 1016.3
20260901071043 79 254 0.0 0.0 0.00 0.00 0.00 60 1016.3
20260901070543 79 254 0.0 0.0 0.00 0.00 0.00 60 1016.2
20260901070042 78 266 0.0 0.0 0.00 0.00 0.00 60 1016.2
20260901065542 78 266 0.0 0.0 0.00 0.00 0.00 60 1016.2
20260901065042 78 247 0.0 0.0 0.00 0.00 0.00 61 1016.1
20260901064542 78 237 0.0 0.0 0.00 0.00 0.00 63 1016.1
20260901064041 77 237 0.0 0.0 0.00 0.00 0.00 64 1016.1
20260901063541 77 236 0.0 0.0 0.00 0.00 0.00 65 1016.1
20260901063041 76 236 0.0 0.0 0.00 0.00 0.00 66 1016.1
20260901062540 76 233 0.0 0.0 0.00 0.00 0.00 66 1016.2
20260901062040 76 235 0.0 0.0 0.00 0.00 0.00 67 1016.1
20260901061540 76 240 0.0 0.0 0.00 0.00 0.00 67 1016.2
20260901061040 75 220 0.0 0.0 0.00 0.00 0.00 67 1016.2
20260901060539 75 231 0.0 0.0 0.00 0.00 0.00 68 1016.2
20260901060039 75 222 0.0 0.0 0.00 0.00 0.00 68 1016.1
20260901055539 75 222 0.0 0.0 0.00 0.00 0.00 69 1016.1
20260901055038 74 232 0.0 0.0 0.00 0.00 0.00 69 1016.0
20260901054538 74 206 0.0 0.0 0.00 0.00 0.00 69 1016.0
20260901054038 74 243 0.0 0.0 0.00 0.00 0.00 69 1016.0
20260901053538 74 204 0.0 0.0 0.00 0.00 0.00 69 1015.9
20260901053037 74 232 0.0 0.0 0.00 0.00 0.00 70 1015.9
20260901052537 74 215 0.0 0.0 0.00 0.00 0.00 70 1015.9
20260901052037 74 205 0.0 0.0 0.00 0.00 0.00 70 1015.8
20260901051536 74 215 0.0 0.0 0.00 0.00 0.00 70 1015.8
20260901051036 73 218 0.0 0.0 0.00 0.00 0.00 70 1015.7
20260901050536 73 220 0.0 0.0 0.00 0.00 0.00 71 1015.6
20260901050036 73 221 0.0 0.0 0.00 0.00 0.00 71 1015.6
20260901045535 73 203 0.0 0.0 0.00 0.00 0.00 71 1015.6
20260901045035 73 210 0.0 0.0 0.00 0.00 0.00 70 1015.5
20260901044535 74 208 0.0 0.0 0.00 0.00 0.00 70 1015.5
20260901044034 74 208 0.0 0.0 0.00 0.00 0.00 70 1015.5
20260901043534 74 217 0.0 0.0 0.00 0.00 0.00 69 1015.4
20260901043034 74 205 0.0 0.0 0.00 0.00 0.00 69 1015.4
20260901042533 74 218 0.0 0.0 0.00 0.00 0.00 69 1015.4
20260901042033 74 214 0.0 0.0 0.00 0.00 0.00 68 1015.4
20260901041533 74 214 0.0 0.0 0.00 0.00 0.00 69 1015.4
20260901041033 74 214 0.0 0.0 0.00 0.00 0.00 69 1015.3
20260901040532 74 214 0.0 0.0 0.00 0.00 0.00 69 1015.3
20260901040032 74 214 0.0 0.0 0.00 0.00 0.00 69 1015.3
20260901035532 74 214 0.0 0.0 0.00 0.00 0.00 68 1015.3
20260901035031 75 213 0.0 0.0 0.00 0.00 0.00 68 1015.3
20260901034531 75 212 0.0 0.0 0.00 0.00 0.00 68 1015.3
20260901034031 75 213 0.0 0.0 0.00 0.00 0.00 67 1015.3
20260901033531 75 212 0.0 0.0 0.00 0.00 0.00 67 1015.4
20260901033030 75 212 0.0 0.0 0.00 0.00 0.00 67 1015.3
20260901032530 75 212 0.0 0.0 0.00 0.00 0.00 67 1015.2
20260901032030 75 224 0.0 0.0 0.00 0.00 0.00 66 1015.2
20260901031529 75 220 0.0 0.0 0.00 0.00 0.00 66 1015.2
20260901031029 76 220 0.0 0.0 0.00 0.00 0.00 66 1015.1
20260901030529 76 208 0.0 0.0 0.00 0.00 0.00 66 1015.0
20260901030029 76 217 0.0 0.0 0.00 0.00 0.00 66 1015.0
20260901025528 76 208 0.0 0.0 0.00 0.00 0.00 66 1014.9
20260901025028 76 233 0.0 0.0 0.00 0.00 0.00 66 1014.9
20260901024528 76 233 0.0 0.0 0.00 0.00 0.00 66 1014.8
20260901024027 76 233 0.0 0.0 0.00 0.00 0.00 66 1014.7
20260901023527 76 208 0.0 0.0 0.00 0.00 0.00 67 1014.7
20260901023027 76 220 0.0 0.0 0.00 0.00 0.00 67 1014.7
20260901022527 76 232 0.0 0.0 0.00 0.00 0.00 67 1014.7
20260901022026 76 208 0.0 0.0 0.00 0.00 0.00 67 1014.6
20260901021526 76 220 0.0 0.0 0.00 0.00 0.00 66 1014.6
20260901021026 76 213 0.0 0.0 0.00 0.00 0.00 66 1014.6
20260901020525 76 247 0.0 0.0 0.00 0.00 0.00 66 1014.5
20260901020025 76 220 0.0 0.0 0.00 0.00 0.00 65 1014.5
20260901015525 76 237 0.0 0.0 0.00 0.00 0.00 65 1014.5
20260901015025 76 244 0.0 0.0 0.00 0.00 0.00 65 1014.5
20260901014524 76 211 0.0 0.0 0.00 0.00 0.00 64 1014.5
20260901014024 76 235 0.0 0.0 0.00 0.00 0.00 64 1014.5
20260901013524 76 215 0.0 0.0 0.00 0.00 0.00 64 1014.4
20260901013023 77 252 0.0 0.0 0.00 0.00 0.00 64 1014.4
20260901012523 77 229 0.0 0.0 0.00 0.00 0.00 63 1014.4
20260901012023 77 248 0.0 0.0 0.00 0.00 0.00 63 1014.3
20260901011523 77 241 0.0 0.0 0.00 0.00 0.00 63 1014.3
20260901011022 77 244 0.0 0.0 0.00 0.00 0.00 62 1014.2
20260901010522 77 231 0.0 0.0 0.00 0.00 0.00 62 1014.2
20260901010022 77 246 0.0 0.0 0.00 0.00 0.00 62 1014.1
20260901005521 77 221 0.0 0.0 0.00 0.00 0.00 62 1014.0
20260901005021 77 255 0.0 0.0 0.00 0.00 0.00 61 1013.9
20260901004521 77 203 0.0 0.0 0.00 0.00 0.00 61 1013.9
20260901004021 77 252 0.0 0.0 0.00 0.00 0.00 61 1013.9
20260901003520 77 213 0.0 0.0 0.00 0.00 0.00 61 1013.9
20260901003020 77 229 0.0 0.0 0.00 0.00 0.00 61 1013.9
20260901002520 77 215 0.0 0.0 0.00 0.00 0.00 61 1014.0
20260901002019 78 212 0.0 0.0 0.00 0.00 0.00 61 1013.9
20260901001519 78 193 0.0 0.0 0.00 0.00 0.00 61 1013.9
20260901001019 78 226 0.0 0.0 0.00 0.00 0.00 61 1013.9
20260901000519 78 207 0.0 0.0 0.00 0.00 0.00 61 1013.9
20260901000018 78 231 0.0 0.0 0.00 0.00 0.00 60 1013.9
20260831235518 78 188 0.0 0.0 0.00 0.00 0.00 60 1014.0
20260831235018 78 192 0.0 0.0 0.00 0.00 0.00 60 1013.9
20260831234517 78 206 0.0 0.0 0.00 0.00 0.00 60 1013.8
20260831234017 78 210 0.0 0.0 0.00 0.00 0.00 60 1013.8
20260831233517 78 228 0.0 0.0 0.00 0.00 0.00 60 1013.8
20260831233017 78 207 0.0 0.0 0.00 0.00 0.00 60 1013.8
20260831232516 78 206 0.0 0.0 0.00 0.00 0.00 60 1013.8
20260831232016 78 186 0.0 0.0 0.00 0.00 0.00 60 1013.8
20260831231516 78 189 0.0 0.0 0.00 0.00 0.00 60 1013.8
20260831231015 79 226 0.0 0.0 0.00 0.00 0.00 59 1013.8
20260831230515 79 233 0.0 0.0 0.00 0.00 0.00 59 1013.8
20260831230015 79 223 0.0 0.0 0.00 0.00 0.00 59 1013.7
20260831225514 79 195 0.0 0.0 0.00 0.00 0.00 58 1013.7
20260831225014 79 201 0.0 0.0 0.00 0.00 0.00 58 1013.7
20260831224514 79 222 0.0 0.0 0.00 0.00 0.00 59 1013.6
20260831224014 79 204 0.0 0.0 0.00 0.00 0.00 59 1013.6
20260831223513 79 214 0.0 0.0 0.00 0.00 0.00 59 1013.6
20260831223013 79 206 0.0 0.0 0.00 0.00 0.00 59 1013.5
20260831222513 79 145 0.0 0.0 0.00 0.00 0.00 59 1013.5
20260831222012 79 176 0.0 0.0 0.00 0.00 0.00 58 1013.4
20260831221512 79 193 0.0 0.0 0.00 0.00 0.00 58 1013.4
20260831221012 79 165 0.0 0.0 0.00 0.00 0.00 58 1013.4
20260831220512 79 232 0.0 0.0 0.00 0.00 0.00 57 1013.4
20260831220011 79 235 0.0 0.0 0.00 0.00 0.00 57 1013.3
20260831215511 79 195 0.0 0.0 0.00 0.00 0.00 57 1013.3
20260831215011 79 215 0.0 0.0 0.00 0.00 0.00 57 1013.3
20260831214510 79 225 0.0 0.0 0.00 0.00 0.00 56 1013.3
20260831214010 79 231 0.0 0.0 0.00 0.00 0.00 56 1013.3
20260831213510 79 232 0.0 0.0 0.00 0.00 0.00 56 1013.3
20260831213010 80 241 0.0 0.0 0.00 0.00 0.00 56 1013.2
20260831212509 80 224 0.0 0.0 0.00 0.00 0.00 55 1013.2
20260831212009 80 228 0.0 0.0 0.00 0.00 0.00 55 1013.1
20260831211509 80 235 0.0 0.0 0.00 0.00 0.00 55 1013.0
20260831211008 80 231 0.0 0.0 0.00 0.00 0.00 55 1013.0
20260831210508 80 216 0.0 0.0 0.00 0.00 0.00 54 1013.0
20260831210008 80 237 0.0 0.0 0.00 0.00 0.00 54 1012.9
20260831205508 80 206 0.0 0.0 0.00 0.00 0.00 54 1012.8
20260831205007 80 218 0.0 0.0 0.00 0.00 0.00 54 1012.7
20260831204507 80 231 0.0 0.0 0.00 0.00 0.00 53 1012.7
20260831204007 81 216 0.0 0.0 0.00 0.00 0.00 53 1012.6
20260831203506 81 226 0.0 0.0 0.00 0.00 0.00 53 1012.6
20260831203006 81 212 0.0 0.0 0.00 0.00 0.00 53 1012.4
20260831202506 81 212 0.0 0.0 0.00 0.00 0.00 52 1012.4
20260831202006 81 218 0.0 0.0 0.00 0.00 0.00 52 1012.4
20260831201505 81 262 0.0 0.0 0.00 0.00 0.00 52 1012.3